Location: Hertford
(51.7958°N, 0.0812°W)
Time: 19:51:32
(UTC+00:00)

ISS - Visible Passes

Search period start: 25 February 2018 00:00
Search period end: 07 March 2018 00:00
Orbit: 403 x 406 km, 51.6° (Epoch: 26 February)

Date Brightness Start Highest point End Pass type
(mag) Time Alt. Az. Time Alt. Az. Time Alt. Az.
27 Feb -1.0 06:07:33 10° S 06:09:45 17° SE 06:11:58 10° E visible
28 Feb -0.7 05:16:54 10° SSE 05:17:46 11° SE 05:18:38 10° ESE visible
01 Mar -2.0 05:58:34 10° SSW 06:01:27 29° SSE 06:04:21 10° E visible
02 Mar -1.5 05:06:58 10° SSW 05:09:22 20° SE 05:11:49 10° E visible
03 Mar -1.1 04:17:00 13° SE 04:17:18 13° SE 04:18:51 10° ESE visible
03 Mar -3.0 05:50:02 10° SW 05:53:12 47° SSE 05:56:22 10° E visible
04 Mar -2.5 04:59:34 22° SSW 05:01:00 33° SSE 05:04:00 10° E visible
05 Mar -1.7 04:09:24 22° SE 04:09:24 22° SE 04:11:30 10° E visible
05 Mar -3.6 05:42:03 12° WSW 05:44:58 69° SSE 05:48:15 10° E visible
06 Mar -3.4 04:51:48 38° SSW 04:52:42 52° SSE 04:55:55 10° E visible
